EPGD Weather Reports


Display with metric or nautical units.
time (UTC)temp
F
wind
direction
speed
MPH
gust
MPH
rain 1hr
in
rain 24hr
in
rain mn
in
humidity
%
barometer
mb
20260508043504 44 40 10.0 0.0 0.00 0.00 0.00 81 1019.0
20260508040504 44 40 8.0 0.0 0.00 0.00 0.00 81 1019.0
20260508033504 42 2 0.0 0.0 0.00 0.00 0.00 86 1019.0
20260508030504 42 350 3.0 0.0 0.00 0.00 0.00 81 1019.0
20260508023503 42 360 6.0 0.0 0.00 0.00 0.00 81 1019.0
20260508020504 42 360 5.0 0.0 0.00 0.00 0.00 81 1019.0
20260508013504 42 360 7.0 0.0 0.00 0.00 0.00 81 1019.0
20260508010503 42 360 6.0 0.0 0.00 0.00 0.00 81 1019.0
20260508003503 42 360 6.0 0.0 0.00 0.00 0.00 81 1018.0
20260508000504 42 340 6.0 0.0 0.00 0.00 0.00 81 1018.0
20260507233503 42 340 5.0 0.0 0.00 0.00 0.00 81 1018.0
20260507230503 42 360 6.0 0.0 0.00 0.00 0.00 86 1018.0
20260507223503 42 360 8.0 0.0 0.00 0.00 0.00 86 1018.0
20260507220504 42 350 7.0 0.0 0.00 0.00 0.00 86 1018.0
20260507213503 42 360 8.0 0.0 0.00 0.00 0.00 86 1018.0
20260507210503 42 360 7.0 0.0 0.00 0.00 0.00 86 1018.0
20260507203503 42 350 6.0 0.0 0.00 0.00 0.00 86 1018.0
20260507200504 42 350 8.0 0.0 0.00 0.00 0.00 81 1017.0
20260507193503 42 360 7.0 0.0 0.00 0.00 0.00 81 1017.0
20260507190504 42 350 9.0 0.0 0.00 0.00 0.00 81 1016.0
20260507183504 44 10 7.0 0.0 0.00 0.00 0.00 70 1016.0
20260507180504 44 360 8.0 0.0 0.00 0.00 0.00 70 1016.0
20260507173504 44 30 9.0 0.0 0.00 0.00 0.00 70 1016.0
20260507170504 44 20 9.0 0.0 0.00 0.00 0.00 70 1016.0
20260507163506 44 40 8.0 0.0 0.00 0.00 0.00 75 1016.0
20260507160504 44 20 9.0 0.0 0.00 0.00 0.00 75 1016.0
20260507153504 44 20 9.0 0.0 0.00 0.00 0.00 75 1016.0
20260507150504 44 20 7.0 0.0 0.00 0.00 0.00 75 1016.0
20260507143504 44 20 13.0 0.0 0.00 0.00 0.00 81 1015.0
20260507140504 46 30 13.0 0.0 0.00 0.00 0.00 70 1015.0
20260507133503 46 10 14.0 0.0 0.00 0.00 0.00 75 1015.0
20260507130504 46 10 12.0 0.0 0.00 0.00 0.00 75 1015.0
20260507123504 46 10 12.0 0.0 0.00 0.00 0.00 81 1015.0
20260507120504 46 20 13.0 0.0 0.00 0.00 0.00 75 1014.0
20260507113504 48 360 14.0 0.0 0.00 0.00 0.00 70 1014.0
20260507110503 48 360 12.0 0.0 0.00 0.00 0.00 70 1014.0
20260507103504 46 10 13.0 0.0 0.00 0.00 0.00 75 1014.0
20260507100505 46 350 13.0 0.0 0.00 0.00 0.00 75 1013.0
20260507093503 46 350 13.0 0.0 0.00 0.00 0.00 81 1013.0
20260507090504 46 360 14.0 0.0 0.00 0.00 0.00 81 1013.0
20260507083504 46 360 13.0 0.0 0.00 0.00 0.00 81 1012.0
20260507080504 44 350 13.0 0.0 0.00 0.00 0.00 81 1012.0
20260507073504 42 360 14.0 0.0 0.00 0.00 0.00 86 1012.0
20260507070504 42 360 12.0 0.0 0.00 0.00 0.00 86 1012.0
20260507063503 41 20 13.0 0.0 0.00 0.00 0.00 93 1011.0
20260507060504 41 10 9.0 0.0 0.00 0.00 0.00 93 1011.0
20260507053504 41 10 13.0 0.0 0.00 0.00 0.00 100 1011.0
20260507050504 41 10 12.0 0.0 0.00 0.00 0.00 100 1010.0